| time (UTC) | temp F | wind direction | speed knots | gust knots | rain 1hr in | rain 24hr in | rain mn in | humidity % | barometer mb |
| 20260507104536 | 56 | 61 | 0.0 | 0.0 | 0.00 | 0.00 | 0.00 | 90 | 1015.6 |
| 20260507103035 | 56 | 61 | 0.0 | 0.0 | 0.00 | 0.00 | 0.00 | 90 | 1015.8 |
| 20260507101529 | 56 | 61 | 0.0 | 0.0 | 0.00 | 0.00 | 0.00 | 90 | 1015.8 |
| 20260507100027 | 56 | 61 | 0.0 | 0.0 | 0.00 | 0.00 | 0.00 | 90 | 1015.8 |
| 20260507094615 | 57 | 62 | 0.0 | 0.0 | 0.00 | 0.00 | 0.00 | 90 | 1016.0 |
| 20260507093056 | 57 | 62 | 0.0 | 0.0 | 0.00 | 0.00 | 0.00 | 90 | 1016.0 |
| 20260507091603 | 57 | 62 | 0.0 | 0.0 | 0.00 | 0.00 | 0.00 | 90 | 1016.2 |
| 20260507090048 | 57 | 62 | 0.0 | 0.0 | 0.00 | 0.00 | 0.00 | 90 | 1016.4 |
| 20260507084537 | 57 | 65 | 0.0 | 0.0 | 0.00 | 0.00 | 0.00 | 90 | 1016.6 |
| 20260507083021 | 58 | 52 | 0.0 | 0.0 | 0.00 | 0.00 | 0.00 | 89 | 1016.7 |
| 20260507081523 | 58 | 52 | 0.0 | 0.0 | 0.00 | 0.00 | 0.00 | 89 | 1016.9 |
| 20260507080059 | 58 | 52 | 0.0 | 0.0 | 0.00 | 0.00 | 0.00 | 89 | 1016.9 |
| 20260507074558 | 59 | 52 | 0.0 | 0.0 | 0.00 | 0.00 | 0.00 | 88 | 1016.9 |
| 20260507073053 | 59 | 63 | 0.0 | 1.7 | 0.00 | 0.00 | 0.00 | 88 | 1016.8 |
| 20260507071537 | 59 | 329 | 0.0 | 1.7 | 0.00 | 0.00 | 0.00 | 88 | 1016.8 |
| 20260507070020 | 59 | 347 | 0.0 | 2.6 | 0.00 | 0.00 | 0.00 | 88 | 1017.0 |
| 20260507064519 | 59 | 355 | 0.9 | 2.6 | 0.00 | 0.00 | 0.00 | 87 | 1017.2 |
| 20260507063103 | 60 | 297 | 0.0 | 0.0 | 0.00 | 0.00 | 0.00 | 87 | 1017.2 |
| 20260507061559 | 60 | 292 | 0.0 | 0.0 | 0.00 | 0.00 | 0.00 | 86 | 1017.2 |
| 20260507060040 | 60 | 283 | 0.0 | 0.0 | 0.00 | 0.00 | 0.00 | 85 | 1017.1 |
| 20260507054537 | 60 | 282 | 0.0 | 0.0 | 0.00 | 0.00 | 0.00 | 83 | 1017.2 |
| 20260507053018 | 60 | 289 | 0.0 | 0.0 | 0.00 | 0.00 | 0.00 | 82 | 1017.2 |
| 20260507051518 | 60 | 309 | 0.0 | 2.6 | 0.00 | 0.00 | 0.00 | 81 | 1017.2 |
| 20260507050103 | 61 | 329 | 0.0 | 2.6 | 0.00 | 0.00 | 0.00 | 81 | 1017.1 |
| 20260507044602 | 61 | 312 | 0.0 | 2.6 | 0.00 | 0.00 | 0.00 | 80 | 1017.1 |
| 20260507043041 | 61 | 290 | 1.7 | 4.3 | 0.00 | 0.00 | 0.00 | 80 | 1017.0 |
| 20260507041537 | 61 | 308 | 1.7 | 4.3 | 0.00 | 0.00 | 0.00 | 79 | 1016.9 |
| 20260507040019 | 61 | 286 | 1.7 | 4.3 | 0.00 | 0.00 | 0.00 | 77 | 1016.9 |
| 20260507034516 | 62 | 305 | 2.6 | 6.1 | 0.00 | 0.00 | 0.00 | 75 | 1016.7 |
| 20260507033057 | 62 | 345 | 1.7 | 4.3 | 0.00 | 0.00 | 0.00 | 75 | 1016.5 |
| 20260507031556 | 62 | 326 | 2.6 | 7.0 | 0.00 | 0.00 | 0.00 | 75 | 1016.4 |
| 20260507030041 | 63 | 346 | 2.6 | 8.7 | 0.00 | 0.00 | 0.00 | 73 | 1016.3 |
| 20260507024536 | 63 | 273 | 1.7 | 7.8 | 0.00 | 0.00 | 0.00 | 72 | 1016.2 |
| 20260507023018 | 64 | 323 | 3.5 | 9.6 | 0.00 | 0.00 | 0.00 | 71 | 1016.1 |
| 20260507021517 | 64 | 288 | 2.6 | 8.7 | 0.00 | 0.00 | 0.00 | 71 | 1016.0 |
| 20260507020107 | 65 | 304 | 1.7 | 7.8 | 0.00 | 0.00 | 0.00 | 69 | 1015.8 |
| 20260507014616 | 66 | 313 | 3.5 | 7.0 | 0.00 | 0.00 | 0.00 | 68 | 1015.7 |
| 20260507013053 | 66 | 355 | 4.3 | 8.7 | 0.00 | 0.00 | 0.00 | 66 | 1015.7 |
| 20260507011547 | 67 | 324 | 3.5 | 8.7 | 0.00 | 0.00 | 0.00 | 64 | 1015.7 |
| 20260507010059 | 66 | 338 | 4.3 | 11.3 | 0.00 | 0.00 | 0.00 | 64 | 1015.7 |
| 20260507004547 | 67 | 304 | 3.5 | 10.4 | 0.00 | 0.00 | 0.00 | 64 | 1015.6 |
| 20260507003044 | 67 | 331 | 5.2 | 7.8 | 0.00 | 0.00 | 0.00 | 63 | 1015.5 |
| 20260507001548 | 67 | 269 | 3.5 | 11.3 | 0.00 | 0.00 | 0.00 | 64 | 1015.4 |
| 20260507000043 | 67 | 291 | 3.5 | 12.2 | 0.00 | 0.00 | 0.00 | 64 | 1015.4 |
| 20260506234540 | 67 | 288 | 2.6 | 9.6 | 0.00 | 0.00 | 0.00 | 64 | 1015.4 |
| 20260506233020 | 67 | 217 | 4.3 | 13.0 | 0.00 | 0.00 | 0.00 | 66 | 1015.3 |
| 20260506231518 | 67 | 279 | 7.0 | 12.2 | 0.00 | 0.00 | 0.00 | 64 | 1015.3 |
| 20260506230105 | 68 | 5 | 4.3 | 11.3 | 0.00 | 0.00 | 0.00 | 63 | 1015.4 |
| 20260506224559 | 67 | 333 | 7.0 | 13.9 | 0.00 | 0.00 | 0.00 | 65 | 1015.4 |
| 20260506223038 | 68 | 278 | 4.3 | 12.2 | 0.00 | 0.00 | 0.00 | 66 | 1015.6 |
| 20260506221536 | 68 | 303 | 3.5 | 9.6 | 0.00 | 0.00 | 0.00 | 65 | 1015.6 |
| 20260506220024 | 67 | 300 | 5.2 | 11.3 | 0.00 | 0.00 | 0.00 | 66 | 1015.8 |
| 20260506214514 | 67 | 260 | 6.1 | 11.3 | 0.00 | 0.00 | 0.00 | 66 | 1015.9 |
| 20260506213056 | 67 | 270 | 6.1 | 13.9 | 0.00 | 0.00 | 0.00 | 66 | 1016.0 |
| 20260506211554 | 67 | 250 | 7.0 | 11.3 | 0.00 | 0.00 | 0.00 | 66 | 1016.1 |
| 20260506210033 | 67 | 254 | 6.1 | 13.0 | 0.00 | 0.00 | 0.00 | 66 | 1016.2 |
| 20260506204533 | 67 | 299 | 5.2 | 12.2 | 0.00 | 0.00 | 0.00 | 66 | 1016.2 |
| 20260506203012 | 67 | 281 | 7.8 | 13.0 | 0.00 | 0.00 | 0.00 | 66 | 1016.4 |
| 20260506201510 | 68 | 277 | 6.1 | 11.3 | 0.00 | 0.00 | 0.00 | 64 | 1016.4 |
| 20260506200051 | 68 | 292 | 6.1 | 12.2 | 0.00 | 0.00 | 0.00 | 63 | 1016.5 |
| 20260506194552 | 69 | 284 | 3.5 | 8.7 | 0.00 | 0.00 | 0.00 | 62 | 1016.6 |
| 20260506193030 | 69 | 47 | 2.6 | 9.6 | 0.00 | 0.00 | 0.00 | 62 | 1016.7 |
| 20260506191528 | 69 | 355 | 3.5 | 8.7 | 0.00 | 0.00 | 0.00 | 59 | 1016.9 |
| 20260506190007 | 69 | 355 | 0.9 | 8.7 | 0.00 | 0.00 | 0.00 | 57 | 1017.0 |
| 20260506184505 | 68 | 344 | 0.9 | 7.0 | 0.00 | 0.00 | 0.00 | 59 | 1017.1 |
| 20260506183046 | 68 | 313 | 3.5 | 9.6 | 0.00 | 0.00 | 0.00 | 59 | 1017.3 |
| 20260506181541 | 66 | 256 | 1.7 | 13.9 | 0.00 | 0.00 | 0.00 | 60 | 1017.4 |
| 20260506180021 | 66 | 238 | 2.6 | 7.8 | 0.00 | 0.00 | 0.00 | 61 | 1017.6 |
| 20260506174519 | 65 | 340 | 3.5 | 9.6 | 0.00 | 0.00 | 0.00 | 62 | 1017.7 |
| 20260506173120 | 64 | 17 | 1.7 | 9.6 | 0.00 | 0.00 | 0.00 | 65 | 1017.8 |
| 20260506171558 | 63 | 326 | 1.7 | 8.7 | 0.00 | 0.00 | 0.00 | 69 | 1018.1 |
| 20260506170034 | 63 | 24 | 0.9 | 5.2 | 0.00 | 0.00 | 0.00 | 68 | 1018.1 |
| 20260506164533 | 62 | 275 | 1.7 | 4.3 | 0.00 | 0.00 | 0.00 | 69 | 1017.9 |
| 20260506163019 | 62 | 19 | 3.5 | 6.1 | 0.00 | 0.00 | 0.00 | 70 | 1018.1 |
| 20260506161511 | 61 | 36 | 2.6 | 5.2 | 0.00 | 0.00 | 0.00 | 72 | 1018.0 |
| 20260506160053 | 61 | 10 | 0.9 | 4.3 | 0.00 | 0.00 | 0.00 | 73 | 1018.1 |
| 20260506154600 | 60 | 9 | 0.9 | 4.3 | 0.00 | 0.00 | 0.00 | 73 | 1018.1 |
| 20260506153039 | 60 | 349 | 1.7 | 4.3 | 0.00 | 0.00 | 0.00 | 73 | 1018.2 |
| 20260506151533 | 59 | 98 | 2.6 | 4.3 | 0.00 | 0.00 | 0.00 | 75 | 1018.2 |
| 20260506150016 | 58 | 59 | 1.7 | 3.5 | 0.00 | 0.00 | 0.00 | 77 | 1018.2 |
| 20260506144513 | 57 | 43 | 2.6 | 5.2 | 0.00 | 0.00 | 0.00 | 78 | 1018.1 |
| 20260506143056 | 56 | 47 | 0.9 | 4.3 | 0.00 | 0.06 | 0.00 | 81 | 1018.0 |
| 20260506141557 | 55 | 80 | 2.6 | 7.0 | 0.00 | 0.06 | 0.00 | 82 | 1018.0 |
| 20260506140044 | 54 | 50 | 0.9 | 2.6 | 0.00 | 0.06 | 0.00 | 83 | 1018.0 |
| 20260506134536 | 54 | 38 | 0.0 | 3.5 | 0.00 | 0.06 | 0.00 | 84 | 1017.9 |
| 20260506133015 | 53 | 42 | 0.9 | 2.6 | 0.00 | 0.06 | 0.00 | 85 | 1017.8 |
| 20260506131518 | 53 | 82 | 0.0 | 0.9 | 0.00 | 0.06 | 0.00 | 86 | 1017.5 |
| 20260506130059 | 53 | 55 | 0.0 | 2.6 | 0.00 | 0.06 | 0.00 | 86 | 1017.4 |
| 20260506124559 | 53 | 48 | 0.0 | 1.7 | 0.00 | 0.06 | 0.00 | 86 | 1017.3 |
| 20260506123038 | 53 | 42 | 0.0 | 2.6 | 0.00 | 0.07 | 0.00 | 86 | 1017.3 |
| 20260506121538 | 53 | 53 | 0.0 | 2.6 | 0.00 | 0.07 | 0.00 | 86 | 1017.2 |
| 20260506120025 | 53 | 50 | 0.0 | 0.0 | 0.00 | 0.07 | 0.00 | 85 | 1017.1 |
| 20260506114518 | 53 | 38 | 0.0 | 0.0 | 0.00 | 0.07 | 0.00 | 85 | 1017.1 |
| 20260506113005 | 53 | 57 | 0.0 | 0.0 | 0.00 | 0.07 | 0.00 | 84 | 1017.2 |
| 20260506111504 | 54 | 56 | 0.0 | 1.7 | 0.00 | 0.07 | 0.00 | 84 | 1017.1 |
| 20260506110005 | 54 | 42 | 0.9 | 2.6 | 0.00 | 0.07 | 0.00 | 84 | 1017.1 |